Skip Page Navigation
NASA JPL Caltech
NASA Logo - Jet Propulsion Laboratory + View the NASA Portal
+ Near-Earth Object (NEO) Program
Search JPL
JPL Home Earth Solar System Stars & Galaxies Technology
JPL Solar System Dynamics
BODIES ORBITS EPHEMERIDES TOOLS PHYSICAL DATA DISCOVERY FAQ SITE MAP
JPL Small-Body Database Browser
Search: [ help ]  
152828 (1999 VT25)
Classification: Apollo [NEO, PHA]          SPK-ID: 2152828
Ephemeris | Orbit Diagram | Orbital Elements | Physical Parameters | Discovery Circumstances | Close-Approach Data ]

[ hide orbit diagram ]
Orbit Diagram
Note: Make sure you have Java enabled on your browser to see the applet. This applet is provided as a 3D orbit visualization tool. The applet was implemented using 2-body methods, and hence should not be used for determining accurate long-term trajectories (over several years or decades) or planetary encounter circumstances. For accurate long-term ephemerides, please instead use our Horizons system.
Orbit Viewer

Additional Notes: the orbits shown in the applet are color coded. The planets are white lines, and the asteroid/comet is a blue line. The bright white line indicates the portion of the orbit that is above the ecliptic plane, and the darker portion is below the ecliptic plane. Likewise for the asteroid/comet orbit, the light blue indicates the portion above the ecliptic plane, and the dark blue the portion below the ecliptic plane.

Orbit Viewer applet originally written and kindly provided by Osamu Ajiki (AstroArts), and further modified by Ron Baalke (JPL).


Orbital Elements at Epoch 2456400.5 (2013-Apr-18.0) TDB
Reference: JPL 23 (heliocentric ecliptic J2000)
 Element Value Uncertainty (1-sigma)   Units 
e .523063085477633 1.6147e-07  
a 1.161718233260894 7.3359e-09 AU
q .5540663097158263 1.8597e-07 AU
i 5.148485995606493 3.0785e-05 deg
node 222.0396340564371 9.3997e-05 deg
peri 319.116447228817 0.00010964 deg
M 189.0600943211867 3.3545e-05 deg
tp 2456617.665381209496
(2013-Nov-21.16538121)
4.4221e-05 JED
period 457.3510025348526
1.25
4.3321e-06
1.186e-08
d
yr
n .787141600225455 7.4559e-09 deg/d
Q 1.769370156805962 1.1173e-08 AU
  Orbit Determination Parameters
   # obs. used (total)      77  
   data-arc span      4276 days (11.71 yr)  
   first obs. used      1999-11-12  
   last obs. used      2011-07-28  
   planetary ephem.      DE405  
   SB-pert. ephem.      SB405-CPV-2  
   condition code      0  
   fit RMS      .56332  
   data source      ORB  
   producer      Otto Matic  
   solution date      2013-Apr-29 15:39:19  

Additional Information
 Earth MOID = .0480933 AU 
 T_jup = 5.281 
[ show covariance matrix ]

Ephemeris | Orbit Diagram | Orbital Elements | Physical Parameters | Discovery Circumstances | Close-Approach Data ]

Physical Parameter Table
Parameter Symbol Value Units Sigma Reference Notes
absolute magnitude H 20.878 mag .87052 23 autocmod 2.5c

152828 (1999 VT25)          Discovered 1999-Nov-12 by LINEAR at Socorro (704)
Reference: 20070402/Numbers.arcLast Updated: 2007-04-04

[ show close-approach data ]
Ephemeris | Orbit Diagram | Orbital Elements | Physical Parameters | Discovery Circumstances | Close-Approach Data ]
ABOUT SSD CREDITS/AWARDS PRIVACY/COPYRIGHT GLOSSARY LINKS
FirstGov 2013-Jun-18 21:24 UT
(server date/time)  
NASA Home Page
Site Manager:   Donald K. Yeomans
Webmaster  Alan B. Chamberlin